CAPE
0 0 0 0 0 15 45 69 71 93 13 1 4 39 0 14 17 12 297 1050 1168 1190 1089 1213 1357 1332 1512 1785 1785 1836 1930 2035
0 0 4 0 23 57 80 109 126 152 15 0 0 58 8 0 1 0 214 296 1210 1355 1253 1208 1305 1229 1672 2093 2045 2111 2088 2086
0 0 0 45 45 43 54 52 90 107 202 80 74 63 0 0 0 0 314 543 705 1318 1400 1398 1378 1275 1692 2211 2137 2234 2302 2253
0 0 0 38 80 67 31 140 41 3 24 0 52 0 0 0 0 0 793 728 829 925 1538 1743 1635 1514 2009 2160 2199 2320 2246 2292
0 0 4 1 12 104 164 99 229 101 106 0 0 0 0 0 0 8 597 899 947 1052 1403 1813 1789 1831 1932 2173 2181 2303 2446 2341
0 0 2 10 0 0 0 20 90 250 6 10 0 0 0 0 3 355 493 397 661 1037 1228 1433 1865 1949 2016 2014 2011 1911 2438 2483
0 0 0 0 0 0 16 4 0 61 0 0 0 12 0 0 0 0 370 576 604 636 1253 1345 1524 1706 1865 2000 1892 1785 2258 2407
0 0 0 0 0 48 22 4 0 0 0 22 11 7 1 0 0 290 19 28 529 889 1024 1489 1558 1668 1891 1932 1938 1994 2164 2316
0 0 0 0 0 0 0 160 114 212 43 14 38 3 0 0 63 205 217 264 252 219 980 1262 1631 1832 1989 2085 2151 2113 2137 2158
0 0 0 11 14 103 201 360 482 462 416 239 123 54 624 269 844 893 557 828 872 961 731 1217 1872 2188 2189 2553 2402 2343 2427 2389
0 0 0 126 67 217 166 190 525 823 1044 1192 1120 1068 1017 1247 1506 1633 1821 1455 1620 1679 1644 1897 2075 2331 2379 2310 2608 2741 2659 2530
13 10 17 25 6 0 69 9 37 277 573 988 1165 885 856 1142 1406 1536 1726 2009 2106 1983 2061 2204 2375 2386 2414 2443 2533 2577 2651 2666
1 81 64 0 0 83 27 8 0 0 15 179 378 350 291 657 871 1119 1284 1555 1802 2270 2463 2304 2696 2522 2439 2541 2543 2664 2789 2780
0 7 0 0 0 89 0 0 0 0 0 0 0 0 10 39 179 328 727 1146 1375 1948 2827 2853 2855 2651 2610 2679 2817 2867 2813 2682
9 0 0 0 0 0 0 0 0 0 0 0 0 0 0 0 3 1 27 472 641 1526 2289 3136 3139 2794 2667 2792 3202 2920 2761 2729
0 0 0 0 0 0 0 0 0 0 0 0 0 0 0 0 0 0 0 0 137 173 1075 2109 2439 3194 2891 3203 3168 3011 2793 2776
0 0 0 0 0 0 0 0 0 0 0 0 0 0 0 0 0 0 0 0 0 22 6 263 1565 2412 3097 3145 3074 3014 2862 2781
0 0 0 0 0 0 0 0 0 0 0 0 0 0 0 0 0 0 0 0 0 0 0 0 120 1014 1613 2315 2729 2511 2815 2790
0 0 0 0 0 0 0 0 0 0 0 0 0 0 0 0 0 0 0 0 0 0 0 0 0 0 241 1172 1237 1601 1526 2000
CIN
0 0 0 0 0 -134 -125 -102 -131 -78 -232 -40 -42 -248 -9 -90 -55 -171 -41 -60 -78 -110 -127 -165 -204 -184 -172 -184 -144 -114 -102 -94
0 0 -19 0 -137 -73 -145 -94 -60 -90 -131 0 0 -114 -85 0 -55 0 -74 -22 -62 -71 -94 -140 -178 -159 -162 -175 -134 -108 -100 -91
0 0 -3 -100 -69 -132 -120 -120 -82 -36 -54 -172 -122 -65 0 0 0 0 -42 -31 -45 -48 -64 -114 -137 -151 -128 -142 -125 -82 -86 -80
0 0 0 -71 -37 -71 -47 -49 -129 -69 -105 -320 -212 0 -1 0 0 0 -35 -47 -40 -48 -62 -77 -109 -139 -129 -135 -116 -102 -76 -68
0 0 -45 -18 -2 -19 -18 -49 -45 -23 -151 0 0 0 0 0 0 -33 -32 -47 -52 -54 -72 -86 -106 -119 -123 -130 -114 -114 -89 -65
0 0 -5 -9 0 0 0 -36 -25 -49 -75 -188 0 0 0 0 -13 -21 -20 -30 -41 -45 -59 -87 -98 -117 -117 -116 -119 -98 -92 -69
0 0 0 0 0 0 -29 -20 0 -98 0 0 0 -184 0 0 0 0 -21 -16 -32 -34 -34 -57 -80 -103 -99 -116 -121 -117 -87 -56
0 0 0 0 0 -1 -28 -4 0 0 0 -103 -83 -124 -236 0 0 -35 -37 -30 -30 -29 -46 -76 -75 -89 -85 -105 -114 -98 -59 -65
0 0 0 0 0 0 0 -49 -31 -51 -45 -126 -65 -80 0 -1 -21 -23 -42 -43 -40 -44 -43 -56 -88 -104 -96 -89 -85 -68 -61 -59
0 0 0 -13 -70 -41 -105 -119 -103 -89 -82 -86 -80 -50 -29 -227 -20 -52 -50 -61 -66 -70 -70 -61 -94 -91 -91 -66 -56 -45 -46 -47
0 0 0 -31 -130 -114 -156 -227 -178 -159 -134 -75 -38 -58 -78 -81 -98 -130 -151 -120 -64 -67 -65 -89 -64 -84 -95 -84 -56 -46 -43 -59
-44 -2 -11 -152 -204 0 -118 -181 -308 -272 -236 -192 -152 -118 -164 -142 -154 -178 -185 -163 -145 -73 -43 -51 -67 -84 -93 -104 -78 -58 -65 -83
-40 -52 -124 0 0 -52 -51 -232 -45 0 -240 -341 -305 -325 -318 -258 -274 -260 -241 -223 -217 -150 -72 -41 -85 -76 -75 -84 -81 -86 -94 -92
0 -165 -11 0 0 -90 0 0 0 0 0 0 0 0 -146 -420 -383 -364 -310 -277 -263 -185 -131 -64 -68 -82 -67 -65 -72 -72 -75 -82
-9 0 0 0 0 0 0 0 0 0 0 0 0 0 0 0 -155 -50 -446 -358 -338 -215 -160 -108 -31 -42 -46 -60 -49 -46 -41 -48
0 0 0 0 0 0 0 0 0 0 0 0 0 0 0 0 0 0 0 0 -413 -381 -238 -164 -130 -39 -25 -35 -37 -26 -27 -25
0 0 0 0 0 0 0 0 0 0 0 0 0 0 0 0 0 0 0 0 0 -254 -444 -341 -213 -113 -21 -13 -18 -16 -18 -17
0 0 0 0 0 0 0 0 0 0 0 0 0 0 0 0 0 0 0 0 0 0 0 0 -381 -247 -162 -72 -2 -10 -8 -10
0 0 0 0 0 0 0 0 0 0 0 0 0 0 0 0 0 0 0 0 0 0 0 0 0 0 -335 -177 -147 -46 -8 -6
Wind_Speed
10 18 14 23 31 24 26 26 24 20 24 26 27 21 16 15 12 6 12 11 12 13 17 17 15 16 14 14 14 15 11 7
24 13 11 11 19 20 19 23 24 19 18 18 6 18 12 17 9 20 18 14 9 12 16 16 16 15 14 13 15 15 13 10
31 17 13 13 14 16 16 16 18 24 20 11 7 8 17 13 5 16 14 14 15 8 12 13 12 12 11 11 13 13 11 9
30 35 13 9 12 12 14 17 15 18 19 18 19 24 22 25 25 22 9 12 14 14 11 12 12 11 9 9 9 10 10 8
34 29 8 15 16 17 15 20 25 23 23 23 21 22 24 22 24 20 14 10 11 13 14 12 12 12 11 10 9 9 8 8
26 26 17 10 11 17 20 17 13 13 15 14 8 8 19 26 17 12 13 11 11 9 11 11 11 11 13 11 10 9 11 11
37 38 32 28 27 14 22 28 33 11 12 3 5 11 13 20 10 29 6 13 14 14 8 8 9 10 9 10 11 9 10 9
37 38 31 32 30 20 19 23 23 20 24 8 7 9 7 7 7 17 16 17 15 12 9 4 3 6 6 8 9 10 9 7
28 31 30 31 27 26 21 16 12 15 19 5 4 6 8 9 11 13 18 21 21 19 11 7 0 1 3 5 7 9 9 6
27 28 30 18 19 15 8 12 14 13 18 13 8 10 15 14 9 16 21 24 27 29 28 14 3 2 2 3 3 7 6 5
20 28 23 17 16 11 7 12 14 12 10 12 12 13 17 20 20 23 28 30 30 33 33 15 5 4 3 3 3 1 3 5
16 26 28 22 19 21 13 12 16 13 13 13 12 14 21 23 24 27 29 31 34 32 27 17 9 4 4 4 4 1 4 7
20 17 15 21 20 17 16 17 14 14 16 17 17 18 21 25 26 28 29 31 33 33 28 23 9 5 5 7 6 4 1 3
19 21 26 24 18 13 7 10 13 16 19 20 21 23 24 26 27 28 29 31 32 32 32 24 13 8 8 9 9 5 3 4
17 9 9 9 6 8 9 13 17 20 22 24 25 27 28 29 30 30 31 31 32 33 33 31 21 10 9 11 8 4 3 5
8 5 7 10 12 11 13 16 20 22 25 27 29 31 32 33 33 31 32 33 33 34 33 33 33 29 11 10 6 5 6 6
3 7 9 15 15 17 18 21 24 25 27 31 32 34 35 36 35 33 33 33 33 34 35 35 35 32 32 15 10 9 9 9
9 12 12 16 19 21 23 25 28 30 33 34 35 37 37 38 37 35 37 34 35 36 37 36 35 35 35 34 19 13 12 12
12 15 17 21 24 27 29 31 34 34 35 38 37 38 39 39 38 39 38 38 38 39 39 38 37 37 37 36 36 34 45 27
Wind_Direction
263 288 294 289 282 301 300 306 313 326 320 320 309 319 16 28 19 209 161 124 151 157 162 160 157 160 157 158 159 164 165 160
287 269 285 288 292 295 312 301 307 335 344 358 229 203 199 343 18 344 181 51 117 155 162 161 163 161 156 154 159 162 164 163
276 274 267 288 300 303 314 310 301 308 328 340 30 163 324 350 108 287 134 58 52 119 152 156 153 154 152 151 156 161 163 165
274 256 208 254 289 293 297 305 309 296 315 328 314 316 306 304 265 266 62 55 59 50 111 135 147 149 151 155 158 161 166 163
268 278 243 276 286 292 289 299 286 293 290 301 321 303 289 278 269 292 32 41 66 79 93 124 134 142 150 156 158 158 162 163
265 266 287 253 292 298 284 285 261 301 299 310 331 313 308 274 270 28 40 37 55 91 104 112 131 141 155 164 166 164 162 166
251 248 267 275 278 289 282 276 280 291 313 298 329 152 104 233 348 319 65 73 63 62 108 123 141 157 159 168 172 174 172 170
250 250 264 258 275 284 289 284 294 303 294 291 49 27 347 104 38 354 28 26 16 38 57 87 132 169 176 176 176 173 174 178
261 256 262 267 281 271 286 326 333 344 328 52 9 351 356 61 357 324 339 338 345 6 11 3 179 220 197 187 173 180 186 192
259 254 256 277 312 301 334 329 344 10 31 27 36 75 40 24 309 324 330 339 337 336 339 339 349 7 7 351 171 174 188 193
254 249 258 272 323 324 338 327 336 334 338 9 46 22 352 347 346 348 341 337 340 339 334 356 51 45 30 7 359 43 182 190
261 254 255 263 291 288 304 307 320 325 330 330 344 333 331 334 335 334 337 338 336 338 348 360 18 56 23 356 355 325 184 173
267 269 278 278 285 291 272 274 321 324 324 331 338 333 329 332 330 332 331 332 333 328 329 349 15 11 345 337 328 326 238 183
270 264 264 288 290 278 302 314 319 331 334 332 337 336 330 330 332 330 327 326 328 326 326 339 4 359 333 320 320 316 289 209
270 263 281 318 352 354 342 314 321 321 322 323 324 322 323 320 322 323 322 327 326 321 323 322 330 350 341 324 316 298 262 227
270 288 328 334 337 339 332 317 326 324 322 317 316 316 314 314 315 318 320 320 323 321 315 310 305 300 329 329 314 271 235 226
311 311 325 330 331 327 325 324 318 318 318 312 313 312 311 310 312 316 316 316 317 317 318 314 310 309 303 317 309 287 257 246
298 314 324 323 328 325 318 315 315 311 307 309 310 308 310 310 310 314 310 312 311 309 309 314 315 308 305 303 301 285 259 248
316 315 328 322 318 316 313 312 312 312 310 307 309 310 309 309 310 310 310 309 308 305 302 307 309 309 308 302 302 298 270 283